Theta_e
287 287 287 286 287 287 287 286 287 287 286 286 286 286 285 285 286 286 285 284 284 284 284 283 282 282 282 282 282 282 281 281 277 279 282 283 282 282 282 283 282 281 281
287 286 286 286 286 286 285 285 285 285 285 285 284 283 283 283 284 284 284 284 283 283 282 282 281 281 281 282 281 280 280 280 278 277 280 280 280 282 281 280 279 280 280
286 286 285 285 285 285 284 284 284 283 283 283 283 282 282 282 282 283 284 283 283 283 282 282 282 281 280 281 280 280 280 279 279 278 278 280 280 280 279 279 278 279 279
286 286 285 284 284 284 284 283 283 282 282 282 282 281 281 281 282 282 283 283 283 283 282 282 281 281 280 280 280 280 279 279 279 278 277 277 278 279 278 276 275 277 277
285 285 284 284 283 283 283 283 282 282 281 281 281 281 281 280 280 282 283 283 282 281 281 281 281 280 280 280 279 279 278 278 278 276 276 276 275 276 274 275 274 276 276
284 284 283 283 282 283 282 282 281 280 280 280 280 280 280 279 279 281 281 281 280 279 279 280 280 279 279 279 280 280 280 278 277 275 275 274 273 275 275 274 274 273 270
284 284 283 282 282 282 282 281 281 280 279 279 279 279 279 279 278 280 280 280 279 279 278 278 278 278 278 278 278 279 280 279 279 277 274 273 274 275 274 273 273 272 271
283 282 282 281 281 281 280 280 280 280 279 279 279 279 278 278 278 278 279 279 279 279 278 278 277 277 278 277 277 278 278 278 277 276 275 276 276 276 275 273 272 272 272
282 282 282 281 280 280 279 280 280 279 279 278 278 278 277 277 277 277 278 278 278 277 278 278 278 277 278 278 278 276 276 276 277 277 278 277 277 276 274 272 270 268 267
282 282 282 281 280 280 280 279 279 278 278 277 276 277 276 275 276 277 277 278 276 277 277 277 278 277 278 278 277 275 273 273 273 274 273 272 272 271 272 271 269 266 266
282 281 280 280 279 280 279 279 278 277 276 276 275 275 275 275 275 276 277 277 276 276 276 276 277 277 278 278 277 274 273 274 273 270 269 269 269 269 270 270 269 267 265
281 280 279 279 278 278 277 277 276 276 275 274 274 274 275 274 275 275 276 277 277 276 275 276 276 277 277 276 275 274 273 272 268 267 267 266 267 267 267 267 267 267 267
278 277 278 277 277 277 276 276 275 275 274 275 274 274 274 274 274 275 275 275 276 276 276 276 276 275 274 272 271 271 269 267 266 265 265 265 266 266 266 266 266 266 266
278 277 277 275 276 275 276 276 276 276 275 274 274 274 274 273 273 274 274 275 276 275 276 273 271 271 270 268 266 267 266 266 264 263 264 265 265 264 264 264 263 263 262
278 277 277 277 276 277 276 276 275 275 276 275 275 274 273 273 274 274 275 275 276 276 270 269 269 267 265 266 266 265 265 264 263 264 263 262 262 262 262 263 262 261 260
278 278 278 278 277 276 275 275 276 277 276 276 276 276 276 275 276 275 275 275 275 273 269 267 265 265 264 263 263 263 263 262 263 262 261 261 260 260 260 260 260 260 259
278 279 278 274 276 275 274 273 274 275 276 276 277 277 277 276 275 274 274 274 271 268 265 265 264 263 262 262 261 261 260 261 260 260 259 259 259 258 258 258 258 258 258
276 275 277 277 276 275 274 274 273 272 272 272 273 273 272 272 272 272 272 270 267 265 262 262 261 261 261 260 260 260 259 259 259 258 258 258 257 257 256 257 257 256 256
275 276 275 275 274 273 273 272 272 271 270 270 268 267 267 267 268 269 267 264 262 261 261 260 261 260 260 259 259 258 257 257 257 255 256 256 256 256 255 256 255 255 255
274 272 272 273 272 270 270 270 269 269 269 268 268 267 265 263 265 265 263 262 260 260 260 259 259 259 258 257 257 256 256 256 256 256 256 256 256 256 255 255 255 255 255
276 274 270 270 270 270 269 268 269 269 268 268 267 266 265 263 265 263 262 261 260 259 259 259 258 257 257 256 256 256 255 255 255 255 255 255 255 254 255 255 255 255 255
273 272 270 269 269 268 268 268 268 268 267 266 266 263 266 263 262 261 260 260 259 258 258 257 256 256 256 255 255 254 254 254 254 255 255 254 254 254 255 254 254 254 255
271 270 268 267 267 266 266 267 267 266 266 265 264 263 261 261 260 259 259 258 258 257 257 255 255 254 255 254 254 254 253 253 254 255 253 253 253 254 254 254 254 254 254
269 269 268 267 266 266 266 266 265 263 264 263 262 262 261 260 259 259 257 257 256 256 255 254 253 252 252 252 254 254 254 253 253 253 252 252 252 252 254 254 254 254 255
268 268 267 267 266 265 265 265 264 263 263 262 262 261 260 259 257 258 257 256 254 253 253 252 252 252 252 251 251 252 252 253 252 253 253 253 252 252 253 253 254 255 255
267 267 266 266 265 265 265 264 263 262 261 261 260 260 259 258 257 257 256 254 253 252 252 253 253 252 252 252 253 254 255 257 257 257 256 255 255 255 256 256 256 257 257
Wind_Speed
7 6 6 6 5 5 5 4 4 4 4 4 3 3 3 4 4 3 3 4 5 5 5 6 7 7 6 6 6 7 8 8 12 11 12 13 15 14 12 12 13 14 13
7 6 6 6 5 5 4 4 4 4 3 3 3 3 2 2 2 4 5 5 6 6 6 7 8 6 8 8 7 9 9 10 11 16 14 13 14 14 15 13 12 12 14
7 6 5 5 5 4 4 4 4 4 3 2 1 1 1 3 3 4 5 6 7 7 8 9 9 9 9 8 9 9 9 9 11 11 13 12 11 12 12 13 13 14 12
6 6 5 4 4 4 4 4 4 3 3 2 1 2 2 4 4 5 6 8 8 8 8 8 9 10 10 10 10 11 10 11 10 11 12 12 12 12 11 12 13 11 13
6 6 5 5 5 5 5 4 4 4 3 3 3 3 3 4 3 6 7 8 9 10 9 8 8 9 13 12 9 11 13 11 11 11 12 12 12 11 13 11 13 13 12
7 7 7 6 5 5 4 4 4 4 4 3 4 5 5 3 5 8 9 8 9 9 9 9 9 10 10 14 14 19 16 14 12 11 12 13 16 13 11 12 13 13 17
8 6 6 6 5 5 5 5 5 5 4 5 5 5 5 5 6 9 9 8 9 9 10 9 9 7 10 11 15 19 17 8 13 13 15 14 15 14 15 16 15 14 14
7 7 7 7 7 6 5 6 6 5 6 6 5 5 5 5 7 9 10 9 9 10 9 9 10 11 10 11 15 14 11 12 12 10 14 14 13 15 16 15 16 16 13
8 8 8 7 6 6 7 7 6 6 6 6 5 6 7 6 7 9 9 9 9 10 9 9 10 11 14 19 14 14 14 13 13 20 17 19 24 24 18 12 10 11 12
8 8 6 7 8 8 7 6 6 6 7 5 6 6 6 7 8 9 9 7 9 8 9 10 11 11 16 18 13 13 14 14 15 12 12 14 15 13 16 10 10 10 11
5 5 5 6 7 7 6 6 6 6 6 6 7 6 7 7 8 10 10 8 7 8 8 8 8 14 18 17 18 12 14 17 15 11 10 9 9 9 8 8 10 10 11
6 7 7 6 6 5 7 6 6 6 6 7 7 6 6 6 8 9 11 12 12 9 9 8 9 14 17 18 17 19 20 18 9 9 9 9 9 8 9 10 12 12 11
6 6 7 5 6 6 7 7 6 7 7 7 6 6 5 4 5 10 12 12 13 10 8 12 12 12 15 14 16 18 13 8 8 9 9 9 9 10 12 11 11 12 13
7 7 5 6 7 7 6 6 6 6 6 6 6 7 6 4 5 4 5 6 10 10 12 3 7 10 13 11 7 8 7 7 8 9 9 10 9 9 10 10 10 10 10
7 5 7 6 7 7 8 7 7 8 8 6 7 6 5 6 4 7 9 7 7 7 1 4 6 7 7 7 7 7 7 8 8 8 9 10 10 10 10 10 10 10 10
7 6 7 7 6 6 6 6 13 15 12 14 15 12 6 11 13 12 14 13 14 9 3 6 7 7 8 8 8 8 8 9 8 9 9 10 10 10 11 10 10 10 11
9 6 5 6 6 6 6 6 7 6 13 14 14 13 12 12 11 12 12 13 5 4 4 6 7 7 7 8 8 8 9 8 9 8 9 9 9 9 11 10 10 10 10
8 7 6 6 6 6 6 6 5 5 6 5 8 9 7 9 9 9 11 5 4 3 4 6 6 7 7 8 8 8 8 8 8 8 9 9 9 9 10 9 10 10 10
7 6 6 6 5 5 4 5 5 5 5 4 3 3 2 5 6 7 2 2 4 5 5 6 6 7 7 8 8 8 8 8 8 8 8 8 8 8 9 9 10 12 12
7 7 4 4 4 5 5 5 5 5 5 5 4 4 2 2 3 3 3 3 4 5 5 6 6 7 7 7 7 7 8 8 8 8 8 8 8 8 10 10 10 10 10
4 4 6 5 5 5 5 5 5 5 5 4 4 3 6 4 4 4 3 4 5 5 6 6 7 7 7 7 7 8 8 9 8 8 8 8 8 9 9 9 10 9 10
4 5 5 5 4 5 5 5 5 5 5 4 3 3 6 3 3 4 4 4 5 5 5 6 6 7 7 7 8 8 9 9 9 8 9 8 9 9 9 10 9 9 10
5 5 5 5 5 4 4 5 5 5 4 4 4 4 3 3 3 4 4 4 5 5 5 5 6 7 7 7 8 8 9 9 9 8 9 10 9 10 9 10 10 10 10
5 6 5 4 4 4 4 5 4 5 4 4 4 3 3 3 4 4 4 4 5 6 5 5 6 9 9 9 8 8 8 9 8 9 11 10 10 10 9 10 10 12 12
5 6 5 5 5 5 5 5 5 5 5 4 3 3 3 3 3 4 4 4 5 6 7 6 6 9 11 13 13 14 14 16 13 12 9 12 14 14 12 10 12 12 14
5 5 4 4 5 5 5 5 5 5 5 4 4 3 3 3 4 4 4 4 5 6 8 7 9 13 14 12 14 15 15 16 14 15 12 11 11 11 10 13 16 12 15
Wind_Direction
125 125 121 115 112 104 103 102 100 104 108 103 92 79 55 41 23 10 3 4 351 341 334 329 324 320 315 313 308 301 304 301 299 307 308 314 314 320 323 318 322 320 317
139 136 130 125 126 117 113 119 133 137 122 125 96 78 50 1 329 344 342 333 321 319 321 319 319 318 308 309 306 307 301 307 302 308 310 318 317 319 319 320 321 319 319
148 145 144 137 133 132 144 153 166 158 153 143 112 61 343 304 303 320 317 316 315 314 318 313 312 309 302 309 306 300 305 305 311 305 312 310 315 320 318 321 326 316 313
156 157 158 158 158 165 174 181 181 178 183 182 195 236 278 300 295 312 312 314 312 314 312 304 308 300 301 308 303 297 307 308 305 303 310 314 318 319 322 325 318 315 317
163 174 182 172 176 186 194 189 194 201 196 213 247 251 267 284 294 314 311 309 314 315 311 307 304 313 298 289 297 300 308 301 302 307 306 315 313 318 326 325 309 313 314
183 193 182 184 191 199 202 206 212 217 224 236 241 255 268 276 308 296 308 310 309 307 305 306 304 305 306 305 298 300 294 296 303 303 309 307 312 316 318 316 311 318 317
195 188 191 195 203 210 210 214 225 231 236 243 251 255 268 288 289 302 305 300 302 298 300 302 304 303 300 313 306 300 297 299 286 299 305 304 306 315 316 313 310 306 301
196 196 201 201 212 213 219 224 228 235 242 249 261 271 273 277 288 304 310 296 292 290 289 290 296 300 309 309 299 303 299 300 306 305 301 297 305 315 309 308 304 302 298
203 210 209 206 216 217 225 228 229 237 245 248 254 257 262 273 288 297 299 293 288 291 294 295 300 296 303 301 305 306 306 304 306 304 302 302 305 306 306 303 301 306 302
213 217 207 205 216 224 230 230 227 230 244 247 251 253 264 274 277 281 291 286 290 295 298 293 292 294 299 304 311 316 311 310 308 311 307 302 304 303 304 296 301 299 305
203 209 212 216 219 225 222 216 218 229 242 247 252 253 257 260 265 276 286 289 292 296 294 301 299 304 301 309 314 316 304 305 318 309 303 301 302 297 297 297 298 293 293
204 208 212 209 214 211 213 216 221 230 242 249 256 261 248 248 254 271 284 287 291 286 291 295 296 303 313 314 313 307 308 316 305 302 301 300 303 305 306 307 301 291 284
191 211 214 212 216 216 214 221 224 225 239 248 252 263 262 244 253 268 286 290 283 286 289 289 314 313 312 309 306 310 319 303 302 301 302 303 308 309 307 299 298 296 287
210 217 210 214 221 219 223 227 230 230 235 243 249 257 267 268 269 276 279 281 282 285 286 279 301 307 306 304 304 305 304 304 307 300 302 307 309 306 304 306 306 307 301
220 216 224 224 219 228 225 225 226 234 229 235 244 254 263 272 277 271 286 296 300 315 117 287 306 311 308 309 309 310 310 311 311 312 311 311 310 308 306 310 306 305 296
231 229 229 226 224 229 237 244 236 240 235 244 247 240 242 250 279 291 292 301 305 350 311 309 303 305 306 311 310 311 309 307 311 315 307 306 307 309 309 310 303 303 301
230 231 226 223 229 231 228 235 251 226 246 252 258 264 271 278 287 292 299 302 340 337 292 298 297 303 303 305 306 306 306 309 312 298 304 303 304 305 305 305 305 306 305
230 238 231 237 233 231 230 236 239 239 238 232 243 257 267 277 283 292 295 323 293 288 290 293 293 297 302 303 303 302 304 304 302 302 300 301 301 300 302 302 305 306 305
233 242 231 238 237 238 233 230 231 230 233 237 222 245 266 281 286 288 0 282 290 289 289 285 291 298 299 298 298 297 297 296 301 297 294 293 294 296 295 298 300 301 299
234 238 227 230 226 225 224 228 228 227 232 235 232 239 200 217 242 249 259 270 271 273 282 287 294 293 291 291 292 294 293 294 295 293 292 294 294 293 293 295 296 300 297
233 223 218 226 227 223 224 220 221 220 230 230 235 212 211 227 262 265 276 274 274 279 285 288 292 290 291 291 292 290 289 290 290 289 289 290 294 291 292 291 291 288 286
225 223 208 220 215 214 215 215 216 220 223 227 226 222 245 233 253 264 267 269 272 276 281 280 282 284 285 285 288 287 286 286 288 287 287 287 287 287 287 287 286 285 285
212 209 206 209 211 197 200 208 209 214 219 220 217 218 213 230 242 253 263 274 284 287 285 279 281 282 282 276 272 271 274 274 279 287 285 286 284 285 286 285 283 282 283
204 211 212 206 195 200 203 203 203 210 213 213 213 224 234 239 252 264 276 285 287 286 284 279 275 275 283 280 278 272 266 261 266 268 270 270 274 280 276 274 276 279 277
204 206 203 199 194 195 189 197 199 205 206 207 215 224 236 243 263 272 279 282 284 287 289 285 276 279 277 274 270 271 269 272 265 265 266 260 260 266 266 269 274 278 277
202 204 201 189 195 193 194 194 198 197 199 202 212 221 231 242 257 271 280 280 286 288 286 284 282 282 281 280 277 279 280 280 277 264 246 248 256 263 264 267 271 271 275